Weather in Palm Coast

United States     29°34′25″N   81°12′41″W
В апреле 2022 года жителям России запретили посещать сайт meteo.paraplan.net по решению Генеральной прокуратуры. Аудитория сайта уменьшилась в 10 раз. Владельцы сайта не видят смысла в поддержке погодного сервера в таких условиях. Сайт будет закрыт в октябре.
temp.,
°C
wind,
m/s
gust,
m/s
humid.,
%
clouds,
%
prec.,
mm/h
press.,
hPa
HPBL,
m
4 october, tue
tue423:00+20n487957 0.1 1017730
02:00+20n387788 0.2 1016741
05:00+20n388030 0.1 1015526
08:00+19nnw388030 0.1 1016417
11:00+23nne556094 0.1 10171267
14:00+22nne456285 0.1 10171224
17:00+22nne4554100 0.0 10161159
20:00+19nne277162 0.0 1017317
5 october, wed
wed523:00+18ne25735 0.0 1017124
02:00+17nne127745 0.0 101737
05:00+17n118014 0.0 101612
08:00+18nnw11785 0.0 101722
11:00+25ene22444 0.0 10181320
14:00+27ene32375 0.0 10171635
17:00+25e32410 0.0 10161003
20:00+20ese26610 0.0 1017117
6 october, thu
thu623:00+19sse22623 0.0 101840
02:00+18wsw11695 0.0 101812
05:00+17sw11731 0.0 101811
08:00+17wnw11740 0.0 101923
11:00+27wnw11420 0.0 1020861
14:00+30ene22330 0.0 10181956
17:00+27e33430 0.0 1017673
20:00+21se26633 0.0 1018146
7 october, fri
fri723:00+20s24684 0.0 101982
02:00+19sw11710 0.0 102024
05:00+18sw22730 0.0 101931
08:00+18wsw12750 0.0 102042
11:00+27wnw12445 0.0 1021687
14:00+31ne22310 0.0 10191919
17:00+27e33435 0.0 1018581
20:00+22ese267013 0.0 1018149
8 october, sat
sat823:00+21sse23754 0.0 101951
02:00+19sw11805 0.0 101923
05:00+19sw11775 0.0 101915
08:00+19w11774 0.0 102025
11:00+28ne12426 0.0 1021785
14:00+29ene343682 0.0 10191372
17:00+27e34475 0.0 1018871
20:00+22ese26716 0.0 1019141